Temperature
29 29 29 30 31 31 31 31 30 31 31 30 29 28 28 27 26 25 24 23 22 21 20 19 19 19 19 18 18 18 18 18 18 18 18 17 17 17 17 17 17 16 16 16
29 29 30 32 32 32 31 30 30 31 31 30 29 29 28 27 26 25 24 23 22 21 20 19 19 19 18 18 18 18 18 18 18 18 18 18 17 17 17 17 17 16 16 16
29 30 32 32 31 31 31 30 30 30 30 30 29 28 27 27 26 25 24 23 22 21 20 19 19 18 18 18 18 18 18 18 18 18 17 17 17 17 17 17 16 16 16 16
30 31 32 31 31 31 30 31 30 30 29 28 28 26 26 26 26 25 24 23 22 21 20 19 19 19 18 18 18 18 18 17 17 17 17 17 17 17 17 16 16 16 15 15
30 31 31 31 31 31 31 31 31 30 29 28 27 26 26 26 25 25 25 23 22 21 20 20 19 19 18 18 18 18 17 17 17 17 17 17 17 17 16 16 16 15 15 15
31 32 32 32 32 32 31 31 30 28 26 25 26 27 26 27 26 26 25 24 23 22 21 20 20 19 19 18 18 17 17 17 17 17 17 17 17 16 16 16 16 15 15 15
30 31 32 32 31 31 31 29 27 24 23 23 24 26 27 28 28 27 26 25 23 22 21 20 20 19 19 18 18 17 17 17 17 17 16 16 16 16 16 16 15 15 15 15
28 29 30 31 31 30 30 29 26 24 23 23 24 25 28 29 29 27 26 25 24 22 22 21 20 19 19 18 18 17 17 17 17 16 16 16 16 16 16 16 15 15 15 15
29 29 30 31 31 30 29 29 29 27 26 25 24 25 27 28 28 28 26 25 24 23 22 21 20 20 19 18 18 17 17 17 17 16 16 16 16 15 15 15 15 15 15 15
29 28 29 29 30 30 30 30 29 28 26 25 23 22 23 25 27 27 27 26 25 24 23 22 21 20 20 19 18 17 17 17 17 16 16 16 16 15 15 15 15 15 15 14
29 28 28 28 28 28 29 29 29 28 27 25 23 22 24 25 27 27 27 26 25 24 23 22 21 21 20 19 18 18 17 17 17 16 16 16 15 15 15 15 14 14 14 14
28 28 27 28 29 28 28 28 28 26 26 27 25 24 27 27 28 28 28 27 26 25 24 23 22 21 20 20 19 18 17 17 17 16 16 16 15 15 15 15 14 14 14 14
26 26 26 26 26 27 28 28 28 28 27 27 26 25 27 28 28 28 28 27 26 25 24 23 22 21 21 20 19 18 18 17 17 16 16 16 15 15 15 15 14 14 14 14
25 26 26 25 25 25 25 26 27 27 27 27 28 26 26 27 27 28 28 27 26 25 24 24 23 22 21 20 20 19 18 17 17 17 16 16 16 15 15 15 14 14 14 14
25 26 26 27 26 25 25 25 25 26 27 27 27 27 27 27 27 28 28 27 26 25 25 24 23 22 21 21 20 19 18 18 17 17 16 16 16 15 15 15 14 14 14 14
25 24 25 25 26 25 25 25 25 25 27 27 28 28 29 28 28 28 28 28 27 26 25 24 23 22 21 21 20 19 19 18 18 17 17 16 16 15 15 15 14 14 14 14
23 23 23 24 25 25 24 25 26 26 27 28 28 29 29 28 28 27 27 27 27 26 25 24 23 22 21 21 20 19 19 18 18 17 17 16 16 15 15 15 14 14 14 14
22 22 22 23 24 23 26 27 27 27 28 29 30 29 29 29 28 28 28 28 27 26 25 25 24 23 22 21 20 20 19 18 18 17 17 16 16 16 15 15 15 14 14 14
24 23 23 23 23 24 26 26 26 26 27 29 29 29 29 28 28 28 28 27 27 26 26 25 24 23 22 21 20 20 19 18 18 17 17 17 16 16 16 15 15 15 15 15
24 23 22 22 22 22 24 25 25 26 25 27 28 28 28 28 28 27 27 26 26 26 25 24 24 23 22 21 20 20 19 18 18 17 17 17 17 16 16 16 15 15 15 15
22 21 21 21 21 22 23 23 23 23 23 25 26 27 27 27 27 26 26 26 25 25 24 24 24 23 22 21 21 20 19 18 18 18 17 17 17 16 16 16 16 15 15 15
20 20 20 20 20 21 22 22 21 21 23 24 25 26 26 26 26 26 25 25 25 24 24 23 23 22 22 21 21 20 19 19 18 18 17 17 17 16 16 16 16 15 15 15
19 19 19 19 19 20 20 20 20 22 23 24 25 25 25 25 25 25 24 24 24 23 23 23 22 22 21 21 20 20 19 19 18 18 17 17 17 16 16 16 16 15 15 15
19 19 18 18 19 19 20 21 21 22 22 23 24 24 24 24 24 24 23 23 23 23 22 22 22 21 20 20 20 20 19 19 18 18 17 17 16 16 16 16 15 15 15 15
20 19 19 18 19 19 20 20 20 21 21 22 23 23 23 23 23 22 22 22 22 22 21 21 21 20 20 19 19 19 19 18 17 17 17 16 16 16 16 16 15 15 15 15
20 19 19 19 19 19 19 20 20 21 21 21 22 22 22 22 21 21 21 20 20 20 20 20 20 19 19 19 18 18 18 18 17 17 16 16 16 16 15 15 15 15 15 15
Wind_Speed
16 15 15 14 14 14 12 12 9 5 3 5 6 6 7 10 9 9 10 10 10 10 11 12 11 12 12 10 9 8 9 8 7 5 5 4 4 4 4 5 6 5 4 4
16 18 18 16 13 13 12 11 11 7 4 6 7 8 6 8 8 9 10 10 11 12 13 12 12 11 12 11 10 9 9 9 7 6 4 4 4 4 4 4 5 5 4 3
20 17 15 15 14 12 12 10 11 10 8 8 8 9 7 9 9 10 11 12 12 14 14 14 14 12 12 12 11 9 9 8 7 6 5 5 4 3 5 5 4 3 4 5
20 19 16 15 13 12 11 10 11 12 11 8 8 7 7 11 11 12 14 14 13 14 15 14 14 13 12 12 10 9 8 8 7 6 5 7 6 5 6 5 5 4 3 4
19 18 16 16 13 12 11 10 12 13 11 9 8 8 6 12 13 14 15 16 16 15 15 15 15 14 13 12 11 10 8 8 7 6 6 4 4 5 5 6 6 4 4 3
21 18 16 15 13 12 10 10 12 8 6 8 10 10 6 10 13 14 15 16 17 16 16 15 15 13 12 12 12 11 10 8 7 6 6 3 4 5 7 6 6 4 5 4
22 21 17 14 13 11 10 10 7 4 3 6 10 9 5 10 13 15 17 18 18 18 17 16 16 14 13 13 12 12 11 9 8 7 6 6 5 5 6 5 5 3 5 5
18 16 14 14 14 12 12 11 8 6 7 5 6 6 3 9 12 15 16 18 19 19 18 17 17 16 15 15 14 13 12 10 8 8 7 7 6 5 5 3 3 2 2 6
17 14 11 12 13 14 13 12 11 10 11 7 3 3 2 5 11 16 17 18 20 19 19 19 18 17 16 16 15 15 13 10 9 9 8 7 5 3 5 5 1 3 4 6
17 14 10 9 11 16 16 12 8 8 7 6 3 4 3 8 10 14 18 19 19 20 20 19 18 17 16 15 14 14 13 11 10 10 9 8 6 5 6 5 3 4 5 5
17 14 12 9 11 14 11 12 10 8 7 6 3 4 6 10 11 14 17 19 19 20 20 19 17 16 16 16 16 14 14 13 11 10 8 9 8 7 6 5 5 5 4 4
9 10 11 11 10 11 13 11 11 9 9 9 5 2 4 8 10 12 15 18 19 20 20 20 19 18 17 16 16 15 15 14 12 10 9 9 8 8 7 7 6 6 5 5
7 6 9 9 8 9 11 12 13 11 9 11 9 2 3 5 7 10 14 17 17 18 19 19 18 17 16 16 15 15 15 14 14 12 11 9 9 8 7 7 7 6 6 5
6 10 12 12 7 4 8 13 14 12 10 12 9 3 6 6 9 11 14 17 18 18 17 17 16 16 15 14 14 15 14 14 14 12 12 11 9 8 7 7 7 7 6 6
8 13 14 14 10 9 9 12 16 16 14 12 10 7 7 8 8 9 12 16 18 18 18 17 16 15 15 15 14 14 14 13 13 12 11 11 10 9 8 7 8 7 7 7
7 9 13 14 12 10 11 13 17 16 14 13 14 10 3 6 7 8 11 16 17 18 19 18 18 17 17 16 15 14 14 13 12 13 12 11 11 10 9 8 8 8 7 6
8 8 11 14 13 12 14 16 17 15 15 15 12 6 3 6 7 8 11 14 15 17 18 18 18 17 16 16 14 14 14 13 13 12 12 12 11 11 10 10 9 8 7 7
12 9 7 12 12 15 11 10 12 14 14 13 7 2 3 3 5 8 11 11 13 14 16 16 17 17 17 15 15 14 14 14 14 12 12 12 12 11 10 9 8 8 7 7
11 10 8 9 12 13 12 8 8 7 8 6 3 3 2 2 4 5 6 8 10 11 12 13 15 17 17 17 16 15 15 15 15 14 13 13 12 11 10 10 8 7 7 7
8 7 8 9 11 10 7 7 10 6 5 5 3 2 1 1 3 2 3 6 7 7 9 11 13 14 16 16 16 15 16 16 15 15 13 12 12 11 11 10 9 8 7 7
6 7 11 13 12 8 7 8 9 5 1 6 6 5 4 3 2 2 2 4 6 6 7 10 11 11 13 15 16 16 15 15 14 13 12 11 11 10 9 8 8 7 7 8
5 5 7 8 9 6 6 4 2 2 3 4 6 5 5 3 2 2 3 3 5 5 7 9 9 10 12 14 15 14 13 12 12 11 11 11 10 11 10 8 8 7 7 7
2 1 1 2 3 3 5 3 2 3 4 4 5 5 4 2 2 3 3 3 4 5 5 8 10 11 11 12 13 13 11 10 11 11 11 10 10 9 7 9 9 8 7 8
2 1 0 2 3 5 5 4 4 5 5 5 5 4 3 3 4 4 3 3 2 5 5 6 9 11 10 10 11 10 10 10 10 11 10 10 9 9 8 7 8 8 8 9
3 2 2 4 5 5 4 6 7 6 6 5 5 4 4 5 5 5 4 4 3 4 4 5 7 9 9 9 9 9 9 9 9 9 9 9 10 10 8 8 7 8 7 6
3 3 3 3 3 3 5 7 8 6 6 6 5 4 6 5 5 5 5 5 5 5 5 6 6 7 8 8 8 7 8 9 9 9 9 9 8 8 8 7 8 10 10 10
Wind_Direction
228 233 243 247 245 256 271 282 291 284 229 239 245 232 186 170 189 180 164 160 159 151 149 150 150 144 139 137 137 140 140 141 145 148 158 153 150 149 133 127 120 125 112 97
233 235 246 259 264 267 276 284 288 285 249 247 256 246 195 168 177 178 167 163 160 154 150 155 155 152 150 149 150 150 147 148 153 146 154 148 138 144 123 103 114 125 118 112
237 242 240 249 259 266 271 275 281 286 278 260 264 251 194 174 177 171 169 168 165 163 158 161 160 158 157 158 158 154 148 150 149 154 158 137 132 142 121 124 131 121 111 95
243 252 253 252 257 261 266 275 277 275 273 270 256 258 207 188 183 179 175 171 170 167 164 166 165 161 161 162 155 142 146 146 145 162 160 158 162 153 142 139 128 121 106 106
245 247 251 253 256 264 270 278 280 280 282 280 260 258 218 184 190 188 181 175 171 170 170 170 167 164 164 161 152 146 146 145 149 159 148 164 156 136 129 120 120 129 120 115
255 252 248 252 253 254 267 274 275 291 298 279 272 266 214 188 194 184 179 174 170 170 171 170 165 161 160 157 153 150 149 148 152 154 144 155 130 118 118 127 142 166 148 139
249 253 252 250 251 248 253 263 270 288 275 264 281 273 205 186 181 174 176 175 171 170 170 167 164 162 163 161 157 154 154 154 156 153 144 136 126 122 132 150 161 193 155 137
244 244 247 250 248 249 244 247 254 264 267 274 275 261 200 158 153 161 166 168 169 170 171 169 168 168 169 165 161 157 157 158 158 153 145 140 144 161 156 161 157 168 98 113
249 248 235 244 250 252 255 253 254 258 268 275 269 290 87 127 154 158 162 166 170 172 172 172 172 171 170 167 164 161 161 161 161 154 148 150 164 154 123 128 150 122 103 130
254 264 254 243 252 249 249 253 256 265 283 286 321 307 243 182 180 169 167 171 172 172 173 172 172 172 170 166 162 160 161 162 162 158 165 162 155 137 133 152 142 97 88 84
249 254 252 240 238 249 245 250 262 273 275 280 278 273 217 198 187 179 175 173 173 174 174 172 172 171 169 165 164 162 163 164 167 168 171 152 158 153 153 158 145 127 126 132
270 262 256 246 245 262 259 251 256 257 268 280 273 210 252 202 186 181 175 172 173 175 174 172 172 171 173 170 167 167 167 169 170 167 163 159 159 160 165 166 157 153 159 171
315 281 259 253 253 257 260 252 259 260 254 263 271 200 201 209 182 181 178 171 171 173 174 172 171 171 174 173 169 169 170 171 171 168 170 166 166 168 173 164 161 165 171 185
292 269 269 263 264 267 276 285 289 278 258 261 268 200 190 216 198 188 178 169 172 174 174 172 169 171 172 171 169 170 173 172 171 171 175 172 172 170 174 169 165 172 181 193
272 265 264 266 257 253 259 271 276 276 269 266 270 252 201 198 209 189 178 170 174 175 177 175 171 171 171 171 171 172 175 172 171 172 176 172 172 171 176 176 175 180 193 203
270 280 285 276 262 249 254 254 258 265 265 264 264 265 219 180 196 182 183 178 178 179 180 179 176 173 173 174 175 175 174 172 170 175 178 171 173 176 181 183 183 186 196 212
282 268 274 274 269 265 251 244 244 250 249 248 253 260 220 174 173 180 191 184 182 182 181 181 179 176 175 176 174 175 173 170 172 177 179 173 177 181 185 191 188 192 196 205
257 262 263 269 270 260 258 255 257 252 247 252 256 242 238 194 186 190 184 181 182 186 184 181 179 177 176 174 172 173 173 172 176 180 180 177 181 186 185 191 190 191 195 204
232 239 250 261 262 268 276 283 280 271 275 281 268 225 206 196 202 177 169 176 178 186 181 178 180 179 173 173 173 174 176 177 180 184 185 182 183 186 186 192 194 194 198 208
221 224 237 246 256 260 285 319 326 308 268 355 23 39 18 181 220 145 142 168 169 173 171 173 178 176 171 171 169 175 180 181 186 188 187 183 182 186 189 191 191 195 201 213
235 230 235 241 249 258 295 320 328 278 248 354 17 48 46 48 5 36 69 134 151 160 169 168 167 170 168 165 167 176 182 186 185 182 179 179 180 184 187 188 187 193 203 216
261 244 242 246 246 253 335 342 358 327 9 9 7 29 34 27 24 60 82 107 137 148 167 167 159 156 157 162 167 176 182 179 173 173 174 176 176 189 193 186 190 198 210 219
294 285 266 253 253 334 343 354 306 321 350 0 15 13 12 36 57 86 88 96 134 148 162 162 154 149 153 161 168 176 174 165 165 168 172 172 176 189 190 186 194 201 210 227
295 5 201 296 284 306 314 342 352 359 353 353 11 14 12 48 66 83 95 96 110 139 151 150 150 152 154 160 166 171 166 164 166 170 171 171 175 188 197 195 201 209 216 223
304 298 290 265 282 309 329 345 345 352 350 359 26 24 33 55 65 77 80 71 76 92 109 124 139 148 151 153 158 162 158 158 165 169 173 179 189 193 199 202 211 217 225 229
288 291 267 272 324 317 313 326 330 346 3 8 28 38 49 62 71 74 81 82 84 95 97 108 121 135 141 143 148 153 156 162 169 177 182 191 197 196 201 208 220 222 228 225
Height
1470 1472 1469 1462 1457 1456 1455 1457 1458 1456 1451 1456 1460 1463 1464 1467 1473 1476 1481 1486 1490 1493 1496 1499 1503 1506 1509 1512 1516 1519 1522 1525 1528 1531 1534 1537 1539 1542 1543 1544 1546 1547 1549 1550
1467 1466 1458 1452 1450 1450 1452 1457 1457 1453 1448 1452 1457 1459 1459 1464 1469 1474 1479 1484 1489 1493 1496 1499 1502 1505 1508 1511 1515 1518 1521 1524 1527 1530 1533 1535 1538 1541 1543 1544 1545 1547 1548 1549
1463 1456 1450 1450 1450 1453 1454 1456 1457 1456 1451 1449 1456 1461 1462 1464 1468 1472 1477 1482 1486 1491 1494 1498 1502 1505 1508 1511 1514 1517 1520 1523 1526 1529 1532 1535 1537 1540 1542 1543 1544 1546 1547 1548
1454 1448 1446 1448 1449 1450 1457 1448 1449 1451 1456 1460 1460 1475 1465 1461 1465 1470 1475 1480 1484 1489 1493 1497 1501 1504 1508 1511 1514 1517 1519 1522 1525 1528 1531 1534 1536 1539 1540 1542 1544 1545 1547 1548
1450 1445 1445 1447 1446 1445 1448 1444 1446 1447 1454 1462 1461 1469 1463 1456 1463 1465 1470 1475 1481 1487 1491 1496 1499 1503 1507 1511 1513 1516 1519 1521 1524 1527 1530 1533 1536 1538 1540 1542 1543 1545 1546 1547
1442 1439 1439 1440 1438 1440 1441 1445 1448 1452 1463 1479 1468 1467 1463 1454 1455 1458 1465 1471 1478 1484 1489 1494 1498 1502 1506 1510 1512 1515 1518 1521 1524 1526 1529 1532 1534 1536 1538 1540 1542 1544 1545 1546
1447 1439 1434 1435 1440 1440 1442 1456 1472 1484 1491 1490 1469 1465 1452 1442 1442 1450 1459 1466 1474 1480 1486 1491 1496 1500 1504 1508 1511 1514 1517 1520 1523 1525 1528 1530 1532 1535 1537 1539 1541 1543 1545 1545
1452 1450 1438 1435 1439 1443 1443 1451 1473 1490 1491 1482 1472 1467 1447 1435 1439 1447 1455 1462 1470 1478 1483 1489 1494 1498 1502 1506 1509 1513 1516 1519 1522 1524 1527 1529 1531 1534 1536 1538 1541 1542 1544 1544
1445 1445 1433 1433 1433 1436 1444 1445 1443 1458 1464 1473 1475 1463 1449 1441 1442 1446 1453 1460 1467 1474 1480 1486 1492 1496 1500 1504 1508 1511 1514 1517 1520 1523 1525 1528 1530 1533 1535 1537 1539 1541 1542 1543
1434 1443 1435 1433 1434 1433 1434 1435 1442 1453 1469 1478 1480 1477 1468 1452 1446 1445 1450 1457 1464 1471 1477 1484 1489 1494 1498 1503 1507 1510 1513 1516 1519 1522 1524 1527 1529 1531 1533 1535 1538 1539 1540 1541
1431 1441 1440 1438 1441 1439 1437 1438 1441 1444 1450 1470 1485 1480 1450 1446 1442 1443 1447 1454 1460 1467 1473 1480 1486 1491 1496 1501 1505 1509 1512 1515 1518 1521 1524 1526 1528 1530 1532 1534 1536 1537 1538 1539
1431 1435 1441 1437 1431 1431 1434 1437 1442 1455 1455 1451 1462 1468 1439 1438 1438 1440 1444 1450 1457 1464 1470 1477 1483 1489 1494 1498 1503 1507 1510 1513 1516 1519 1522 1525 1527 1529 1531 1532 1534 1536 1537 1538
1438 1443 1451 1450 1445 1438 1436 1433 1435 1438 1442 1449 1455 1458 1436 1435 1435 1438 1442 1447 1454 1461 1467 1473 1480 1485 1491 1496 1500 1504 1508 1511 1515 1518 1520 1523 1525 1527 1529 1531 1533 1534 1535 1537
1440 1441 1446 1454 1450 1446 1446 1440 1438 1441 1445 1443 1440 1443 1438 1435 1434 1436 1439 1444 1451 1458 1464 1470 1476 1481 1487 1492 1497 1501 1506 1509 1512 1515 1518 1521 1523 1525 1528 1530 1531 1532 1534 1535
1440 1440 1437 1435 1434 1439 1443 1444 1440 1441 1436 1439 1435 1433 1432 1431 1431 1433 1436 1442 1448 1454 1460 1466 1472 1478 1483 1489 1494 1498 1503 1506 1510 1513 1516 1519 1521 1523 1526 1528 1529 1531 1532 1534
1438 1441 1439 1439 1432 1435 1439 1439 1437 1435 1431 1430 1427 1424 1419 1422 1426 1430 1434 1439 1444 1450 1456 1462 1468 1474 1479 1484 1490 1495 1499 1503 1507 1510 1513 1516 1519 1521 1523 1526 1527 1529 1530 1532
1441 1443 1447 1446 1435 1436 1442 1433 1430 1428 1423 1423 1424 1420 1416 1421 1424 1428 1432 1436 1441 1446 1452 1458 1463 1469 1475 1480 1485 1490 1495 1499 1503 1507 1510 1513 1516 1518 1521 1523 1525 1527 1528 1530
1444 1444 1445 1443 1443 1453 1429 1416 1418 1419 1416 1411 1410 1412 1414 1417 1421 1425 1428 1432 1437 1443 1448 1454 1459 1465 1471 1476 1482 1487 1492 1496 1499 1503 1507 1509 1512 1515 1518 1520 1522 1524 1526 1527
1432 1438 1443 1444 1446 1438 1422 1417 1418 1419 1419 1408 1408 1410 1414 1416 1420 1423 1427 1430 1435 1439 1444 1449 1455 1461 1466 1472 1477 1483 1488 1492 1495 1499 1502 1505 1508 1512 1514 1517 1519 1521 1523 1524
1427 1433 1442 1444 1449 1448 1429 1419 1417 1418 1424 1412 1410 1412 1414 1416 1422 1424 1426 1429 1433 1437 1441 1446 1451 1457 1462 1467 1473 1478 1483 1487 1491 1494 1498 1502 1505 1508 1511 1513 1516 1518 1520 1521
1434 1437 1441 1442 1444 1436 1425 1421 1421 1433 1430 1418 1415 1415 1416 1418 1422 1425 1426 1429 1432 1435 1439 1443 1448 1453 1457 1462 1468 1473 1479 1482 1486 1491 1495 1498 1501 1504 1507 1510 1512 1515 1516 1518
1441 1441 1441 1441 1445 1443 1427 1424 1430 1430 1422 1420 1419 1418 1419 1421 1423 1425 1427 1429 1432 1434 1438 1442 1445 1449 1454 1459 1464 1469 1474 1479 1484 1488 1491 1495 1498 1501 1504 1507 1509 1511 1513 1514
1438 1439 1441 1442 1442 1435 1432 1430 1429 1425 1424 1422 1421 1421 1422 1423 1424 1426 1428 1430 1432 1435 1438 1441 1444 1447 1451 1456 1460 1465 1470 1475 1480 1484 1487 1491 1494 1498 1501 1503 1505 1507 1509 1510
1436 1436 1439 1440 1436 1434 1432 1429 1428 1426 1425 1424 1423 1424 1424 1424 1425 1427 1429 1431 1433 1435 1437 1440 1443 1447 1451 1454 1459 1463 1468 1472 1476 1480 1484 1488 1491 1494 1497 1500 1502 1503 1504 1505
1435 1437 1436 1438 1435 1432 1429 1430 1429 1427 1427 1425 1425 1425 1425 1426 1427 1428 1430 1432 1433 1435 1437 1440 1443 1446 1450 1454 1458 1462 1466 1470 1474 1477 1481 1484 1487 1490 1493 1495 1497 1499 1500 1502
1434 1435 1436 1436 1435 1435 1433 1430 1429 1428 1427 1426 1426 1426 1427 1427 1429 1430 1432 1433 1434 1436 1438 1440 1443 1446 1449 1453 1457 1461 1464 1468 1471 1475 1478 1481 1485 1487 1489 1492 1494 1494 1496 1497